Home   Weather   Albury   Past weeks

Flag for Australia Past Weather in Albury, New South Wales, Australia — Yesterday and Last 2 Weeks

Now
70 °F

Clear.


Feels Like: 70 °F
Forecast: 50 / 83 °F
Wind: 3 mph from Northwest

Location: Albury Airport

Current Time: Dec 10, 2016 at 9:59:47 pm

Latest Report: Dec 10, 2016 at 9:00 pm


Visibility: N/A

Pressure: 30.07 "Hg

Humidity: 38%

Dew Point: 43 °F

Location of AlburyLocation

Past Weather in Albury — Graph

°F

Albury Temperature Yesterday

Maximum temperature yesterday: 68 °F (at 4:00 pm)
Minimum temperature yesterday: 50 °F (at 6:00 am)
Average temperature yesterday: 60 °F

High & Low Weather Summary for the Past Weeks

 TemperatureHumidityPressure
High91 °F (Dec 4, 2:00 pm)94% (Nov 27, 6:00 am)30.18 "Hg (Nov 27, 6:00 am)
Low46 °F (Nov 26, 6:00 am)13% (Nov 30, 3:00 pm)29.50 "Hg (Dec 8, 2:00 pm)
Average69 °F53%29.86 "Hg
* Reported Nov 25 8:00 pm — Dec 10 8:00 pm, Albury, Weather by CustomWeather, © 2016

Note: Actual official high and low records may vary slightly from our data, if they occured in-between our weather recording intervals... More about our weather records

Advertising

Albury Weather History for the Previous 24 Hours

Scroll right to see more
 ConditionsComfort  
Time TempWeatherWind HumidityBarometerVisibility
8:00 pm
Sat, Dec 10
75 °FSunny.7 mph31%30.07 "HgN/A
7:00 pm79 °FSunny.7 mph28%30.04 "HgN/A
6:00 pm81 °FSunny.6 mph26%30.04 "HgN/A
5:00 pm81 °FSunny.6 mph26%30.04 "HgN/A
4:00 pm79 °FSunny.6 mph30%30.07 "HgN/A
3:00 pm77 °FSunny.8 mph32%30.09 "Hg4 mi
2:00 pm77 °FSunny.7 mph32%30.09 "HgN/A
1:00 pm75 °FSunny.5 mph34%30.12 "HgN/A
12:00 pm72 °FSunny.3 mph38%30.15 "HgN/A
11:00 am70 °FSunny.6 mph43%30.15 "HgN/A
10:00 am64 °FSunny.3 mph49%30.18 "HgN/A
9:00 am61 °FSunny.3 mph55%30.18 "HgN/A
8:00 am57 °FSunny.5 mph63%30.15 "HgN/A
7:00 am52 °FSunny.No wind72%30.15 "HgN/A
6:00 am46 °FSunny.1 mph82%30.12 "HgN/A
5:00 am46 °FClear.5 mph82%30.09 "HgN/A
4:00 am48 °FClear.1 mph76%30.09 "HgN/A
3:00 am48 °FClear.1 mph76%30.09 "HgN/A
2:00 am50 °FClear.No wind71%30.09 "Hg3 mi
1:00 am54 °FClear.3 mph63%30.09 "Hg4 mi
12:00 am54 °FClear.8 mph58%30.09 "HgN/A
11:00 pm
Fri, Dec 9
55 °FClear.8 mph55%30.09 "HgN/A
10:00 pm59 °FClear.12 mph51%30.07 "HgN/A
9:00 pm61 °FClear.10 mph48%30.07 "HgN/A
Weather by CustomWeather, © 2016

See weather overviewHow to use our weather pages